Vorticity
1 -2 -4 -4 -3 1 7 7 7 10 10 9 8 8 8 7 7 8 7 4 1 11 16 8 5 3 5 9 7 6 7 7 7 5 4 3 3 7 6 3 6 11 11 2 -5 3 10 9 8 6 5 7 7 9 9 8 8 7 8 8 7 9 6 3 4 6 8 10 12 10 8 8 9 13 14 10 8 8 7 8 8 8 9 10 9
7 7 7 6 4 6 10 8 6 9 8 8 8 8 8 8 9 7 8 6 -1 8 17 11 11 10 5 6 6 6 6 7 7 5 4 4 5 6 5 5 7 6 5 2 5 12 12 9 10 11 11 12 10 9 9 8 9 8 7 6 6 8 7 5 5 8 8 8 13 12 6 7 7 6 8 9 7 5 6 6 6 7 8 8 7
8 10 10 8 9 13 11 5 6 9 7 7 8 9 8 8 10 7 9 7 -5 -1 10 13 16 16 11 6 5 8 8 7 8 6 6 5 4 4 3 5 7 8 11 13 13 12 13 14 14 15 14 12 9 9 9 9 8 7 6 6 8 8 6 7 8 8 6 5 13 16 10 9 8 4 5 8 7 4 5 5 5 6 5 4 5
9 10 10 9 12 15 11 6 6 7 7 7 7 9 7 7 9 8 8 3 -5 -1 7 12 14 11 8 6 5 7 8 9 10 9 8 7 6 5 5 8 9 11 11 10 11 12 13 14 12 11 10 8 8 9 9 8 6 6 6 6 8 8 7 7 5 7 9 7 9 9 4 3 4 6 8 8 8 6 5 5 4 4 3 4 4
10 11 10 9 15 18 10 5 5 5 7 7 6 8 6 6 8 8 6 2 1 8 8 8 13 11 9 9 8 9 9 10 11 10 9 8 8 8 8 10 10 9 9 9 10 11 10 10 9 8 7 7 7 6 7 7 6 6 7 7 7 8 7 5 4 8 8 7 7 4 3 7 8 7 7 8 10 8 7 8 8 7 5 5 5
10 9 9 9 16 19 8 0 3 4 5 7 7 8 5 6 7 6 6 5 4 10 10 6 9 12 11 10 12 12 10 11 10 10 10 9 9 10 10 10 9 8 8 8 9 10 11 10 9 7 6 7 6 5 6 6 6 6 6 6 6 6 8 10 10 8 6 6 5 1 2 7 6 4 6 8 9 8 7 9 10 9 7 6 5
11 9 9 11 17 20 7 -2 1 1 3 9 9 7 6 5 6 5 5 7 7 9 11 9 6 7 9 8 9 9 8 9 8 8 9 9 9 10 11 10 8 8 8 10 10 11 12 10 7 6 3 5 5 5 5 4 6 6 5 6 5 6 10 14 12 8 9 11 8 5 4 3 2 5 8 8 7 7 7 9 11 10 7 6 6
12 12 11 11 16 20 7 -1 1 -1 3 11 10 7 6 4 4 5 6 6 8 11 11 11 9 8 11 10 8 8 8 8 8 8 7 8 9 9 10 9 8 8 9 11 10 9 10 7 5 3 1 3 5 6 7 7 8 8 8 8 7 7 6 5 7 7 7 6 6 7 7 4 4 6 8 8 8 7 7 10 11 9 7 6 7
11 13 14 11 15 18 7 1 3 0 5 13 11 7 5 3 5 7 8 5 7 12 12 11 10 11 12 10 9 10 10 10 9 9 8 8 9 8 8 9 10 10 10 11 10 7 7 5 3 4 4 6 8 9 9 9 9 10 10 9 10 10 4 2 7 7 4 4 8 10 8 7 8 9 9 8 7 7 9 10 9 7 7 7 7
10 14 14 11 12 15 7 3 4 1 5 11 10 7 3 3 7 8 8 6 7 13 14 12 11 12 12 8 9 10 8 8 7 7 8 8 9 9 10 11 11 12 13 12 12 10 9 8 7 7 8 8 9 10 10 9 9 10 11 10 11 10 8 8 8 7 6 7 9 9 7 6 7 9 9 9 8 8 8 7 6 6 6 6 7
11 15 14 9 10 14 8 2 3 1 5 8 6 6 4 4 9 8 7 7 10 14 13 11 10 10 11 9 9 8 4 4 6 6 7 7 9 10 11 14 15 16 16 14 12 11 9 8 8 9 9 10 11 11 10 10 10 11 11 11 11 11 10 11 9 9 9 9 8 7 9 8 4 5 8 8 9 9 8 7 6 6 6 6 7
15 17 12 8 10 13 8 5 7 1 3 9 5 3 5 6 9 9 8 9 11 15 12 8 9 10 11 11 8 6 5 5 6 6 7 7 8 10 11 12 12 11 9 5 3 5 6 7 9 11 12 12 14 13 12 12 11 10 10 10 11 11 10 11 10 9 9 9 6 4 9 9 4 7 8 5 8 11 10 8 6 6 6 6 6
16 15 11 10 10 10 8 12 15 1 -2 8 5 2 5 6 10 10 9 13 13 13 11 6 8 10 10 10 7 4 6 6 7 7 7 8 8 9 10 9 8 5 1 -2 -1 4 8 9 11 12 13 13 13 12 12 13 11 9 9 9 10 11 10 10 9 9 8 7 5 4 10 9 5 9 6 -0 6 9 7 7 5 6 6 6 8
17 14 12 12 9 8 7 15 22 6 -4 6 3 -0 5 4 9 12 10 16 15 10 10 6 7 12 11 9 6 5 7 7 9 8 8 10 9 10 10 9 8 5 1 1 5 10 12 11 12 12 12 11 10 11 12 12 12 10 9 8 9 11 10 9 9 8 7 8 8 8 10 10 9 11 8 4 7 7 6 8 7 7 7 7 7
14 14 11 11 9 9 5 7 23 16 -5 1 5 -1 5 6 6 12 14 16 14 9 9 7 9 13 10 8 5 6 9 7 7 8 8 11 12 13 12 10 10 8 8 10 12 13 12 12 12 11 11 10 9 9 10 11 12 11 11 10 10 11 10 10 10 7 6 9 11 9 8 9 10 10 8 8 9 8 8 9 8 8 9 8 8
9 12 12 12 7 9 7 -1 16 25 -7 -12 7 3 2 8 5 9 16 17 13 10 9 7 10 12 9 7 7 6 8 6 5 8 9 11 12 13 12 11 10 11 13 15 13 11 11 12 12 11 11 10 9 8 7 10 12 11 12 11 12 14 11 10 10 8 9 10 10 11 9 8 9 9 7 8 9 8 8 8 8 9 9 9 9
4 9 11 15 9 7 11 -4 7 33 2 -23 -0 7 1 6 5 6 14 17 14 10 9 9 10 12 9 6 6 5 5 5 7 9 10 12 14 15 15 14 14 16 17 16 13 11 11 11 11 10 10 10 10 9 7 6 8 9 8 4 6 10 8 6 7 7 8 7 5 6 4 -0 1 4 5 6 8 7 6 7 9 9 9 9 10
0 4 4 11 10 3 6 -3 -1 27 14 -14 -4 5 2 5 4 6 12 15 14 9 7 10 11 11 9 6 4 5 5 7 10 9 7 8 10 13 15 15 15 16 19 16 11 9 9 8 9 9 11 10 9 10 9 7 6 5 4 -1 1 5 3 2 4 3 3 3 3 4 1 -2 -0 2 3 4 7 8 6 6 7 7 7 7 7
1 7 5 5 8 2 3 3 1 9 8 0 2 2 2 5 2 3 10 14 14 10 7 9 11 11 9 6 5 5 8 10 10 6 3 4 5 6 9 11 11 12 12 11 8 8 10 11 12 14 16 16 15 12 10 9 8 6 5 4 4 5 5 5 6 6 7 8 9 10 9 8 8 8 7 6 6 7 7 6 6 6 6 6 6
4 7 8 7 11 9 4 7 10 7 -0 -1 4 3 1 5 4 2 6 13 13 9 8 9 12 13 8 3 4 7 10 11 7 4 4 4 4 5 7 10 11 11 11 11 11 14 15 14 13 14 14 16 18 17 14 12 11 10 10 10 10 11 12 13 13 13 14 14 14 14 13 13 13 12 12 11 9 8 8 8 8 7 7 7 7
10 8 11 11 11 10 5 4 9 13 10 1 -4 2 5 2 3 3 3 10 13 10 9 9 11 12 6 0 3 7 10 9 5 3 4 3 3 6 8 10 11 12 13 15 15 17 15 10 7 5 4 5 8 12 14 13 13 12 12 12 12 14 14 13 13 13 12 11 11 10 10 11 12 12 12 12 11 10 11 12 11 11 11 11 10
9 10 11 10 5 3 3 2 1 7 23 19 -6 -10 5 4 2 5 3 5 12 11 8 7 8 9 5 2 5 7 7 8 4 3 5 4 5 7 7 8 9 9 9 10 11 12 8 4 2 -0 -1 0 3 7 10 11 11 10 10 10 9 8 8 8 8 8 6 6 7 8 8 9 11 12 11 11 12 11 12 13 12 12 11 11 10
4 3 3 3 2 0 0 3 2 -1 17 36 15 -9 1 7 -0 3 5 5 10 11 8 6 7 9 6 4 8 9 8 9 6 4 6 7 7 7 6 6 6 5 5 6 7 7 6 4 4 4 4 5 7 8 8 7 8 7 8 8 5 4 5 5 4 4 4 5 7 8 8 8 9 9 8 7 7 8 8 9 8 8 8 8 8
11 9 6 5 3 4 3 4 8 1 -0 25 33 12 5 6 -2 -1 6 5 7 8 8 7 6 7 8 7 10 12 12 13 11 6 5 6 7 8 6 5 5 4 4 5 6 5 4 5 7 9 11 11 12 11 8 6 6 6 6 4 4 4 4 3 2 4 6 7 8 8 7 7 7 6 5 5 6 7 7 7 6 6 7 7 7
9 9 7 6 2 3 5 1 7 11 -1 4 24 27 23 11 -6 -3 7 5 5 7 8 9 7 7 8 7 9 11 13 16 16 12 7 6 7 9 9 8 7 7 6 5 5 5 5 7 9 10 11 11 12 12 10 8 6 6 6 5 6 6 3 2 3 6 8 7 7 7 6 6 7 6 6 7 8 8 7 7 6 6 6 6 5
4 6 3 5 3 1 4 1 1 8 5 3 7 17 35 26 -6 -7 9 7 5 7 7 8 8 8 8 8 8 7 8 13 16 15 12 8 6 7 9 9 8 9 10 9 8 7 7 8 8 9 11 10 12 12 9 9 8 7 8 8 8 6 2 3 6 7 8 7 7 7 6 6 7 6 7 8 9 9 7 7 7 7 6 5 5
9 12 8 7 7 5 6 6 6 8 13 20 9 7 39 41 -3 -13 7 9 8 9 7 8 11 11 9 9 10 7 3 8 13 13 11 9 9 7 6 8 8 7 8 8 9 9 8 9 8 9 12 12 11 11 9 8 8 8 9 9 7 5 3 4 7 8 8 8 7 7 6 7 7 6 6 7 7 7 6 6 6 5 5 5 6
17 15 14 14 14 15 14 11 17 19 16 21 15 16 51 53 4 -14 -1 5 11 12 5 8 12 13 9 5 8 10 6 6 7 8 9 7 7 9 7 6 5 4 5 6 7 9 7 8 8 8 12 14 12 11 9 9 9 8 8 7 5 3 4 6 7 7 7 8 8 7 7 7 6 5 5 6 5 5 5 5 5 5 5 5 6
13 12 15 17 15 17 17 12 16 19 14 16 15 22 52 49 6 -10 -4 -1 10 14 9 9 9 10 11 2 1 8 11 11 5 -0 2 1 1 6 10 10 7 3 4 8 10 11 9 7 8 8 10 13 12 10 9 8 8 7 6 5 4 3 5 6 7 7 7 8 9 9 8 7 6 5 5 5 5 5 5 5 5 5 6 6 6
9 11 13 14 15 16 14 11 11 10 9 17 15 16 39 41 7 -9 -3 -1 4 9 10 9 4 5 11 11 7 1 2 10 9 2 3 1 -1 3 3 7 14 10 6 7 8 9 9 7 7 8 9 12 11 9 8 7 7 7 6 6 5 5 6 7 7 7 7 8 8 8 8 7 6 5 5 4 5 4 4 5 5 6 6 6 7
10 13 13 13 16 15 15 14 8 10 17 19 15 14 27 34 11 -10 -7 2 7 10 15 15 6 -4 -0 12 16 6 1 6 6 5 9 3 6 23 19 7 12 15 9 6 4 6 9 8 6 7 9 12 11 8 6 5 5 5 5 6 6 6 6 6 5 5 5 6 7 7 7 6 5 4 4 3 4 4 4 5 5 5 6 7 7
9 13 12 12 13 9 16 15 6 26 45 25 15 29 29 20 10 -5 -4 11 17 16 15 16 13 5 4 13 14 8 11 14 6 7 12 1 3 34 38 12 5 13 12 8 6 6 9 9 8 9 10 11 13 11 9 7 5 4 4 3 4 4 4 5 4 4 5 6 7 8 7 6 5 4 4 3 3 4 4 5 5 5 6 7 7
8 12 9 11 11 2 14 20 8 40 67 24 4 34 34 14 10 5 6 18 27 29 21 13 15 12 6 6 3 -1 4 10 11 18 24 13 5 18 24 9 4 12 12 8 5 3 7 9 10 11 10 10 11 12 12 10 7 6 4 3 4 4 5 7 5 5 7 8 9 9 8 6 5 4 4 4 4 4 5 5 5 5 6 6 6
6 10 8 10 11 0 12 23 7 32 66 38 14 28 21 5 6 6 10 17 20 26 18 5 10 15 9 8 11 13 13 11 13 17 18 14 9 11 13 10 11 17 15 7 1 1 5 6 6 7 8 9 11 11 12 13 10 8 6 5 6 6 7 8 7 7 8 8 8 9 8 7 5 3 3 3 3 3 4 5 5 5 6 6 6
2 8 7 7 10 4 11 18 5 18 49 39 20 17 6 2 11 12 15 15 8 10 10 6 11 16 16 18 17 21 25 15 3 2 4 7 9 10 11 10 13 16 12 1 -2 2 5 4 3 5 6 7 9 10 11 12 11 10 9 7 7 7 8 8 7 7 7 7 7 7 6 5 3 1 3 4 2 3 4 5 5 5 5 5 6
1 6 8 7 9 5 6 13 7 16 35 26 16 19 8 2 10 8 4 7 13 24 31 29 21 9 8 17 18 17 16 3 -7 -2 6 9 11 12 13 13 12 12 6 -1 -2 1 3 4 5 6 5 5 6 7 9 11 12 12 12 10 9 8 7 7 7 7 7 7 7 6 4 3 1 1 6 6 3 4 5 4 6 7 7 7 7
4 6 7 8 9 4 4 11 9 12 22 15 11 21 16 13 28 33 23 16 15 15 16 17 16 12 11 15 13 8 1 -9 -10 -1 7 9 11 11 10 8 6 5 4 3 5 5 4 5 6 6 5 4 4 4 5 6 9 11 12 12 11 8 7 7 6 5 5 4 4 3 2 3 3 5 8 5 2 4 5 3 5 6 7 8 8
6 8 7 5 7 5 3 10 15 17 21 15 5 7 6 6 18 26 22 16 8 4 7 12 14 16 17 13 8 4 0 -5 -4 3 10 14 15 12 8 6 5 6 7 8 8 7 4 2 4 7 8 6 5 5 5 4 5 9 11 12 11 8 6 5 4 3 2 2 3 3 3 4 4 6 7 5 4 5 5 4 6 6 7 9 10
8 9 8 1 2 7 4 4 8 6 7 10 9 8 5 0 -3 -6 -6 -3 -1 3 10 14 14 13 10 6 5 2 -1 -0 3 10 14 14 12 13 14 11 7 6 8 9 8 5 3 5 10 11 9 7 6 5 4 4 4 6 8 11 11 9 8 6 3 1 -0 -0 2 3 4 4 4 5 6 6 5 5 5 5 5 4 5 5 4
13 11 9 -1 -1 10 12 8 8 5 4 10 10 7 8 10 7 3 2 3 3 5 6 7 14 18 14 10 12 11 9 10 11 12 14 10 5 6 8 7 6 6 7 8 10 8 5 6 9 9 6 7 7 5 4 6 6 6 7 8 8 8 7 3 -2 -3 -0 3 4 3 3 5 6 6 5 3 2 3 3 3 4 5 5 4 2
14 11 8 1 3 16 18 11 9 9 11 15 9 -0 2 7 6 5 7 8 8 10 9 6 6 8 6 7 8 3 -0 1 1 3 10 12 8 6 4 3 4 3 2 3 6 9 9 5 1 -0 1 3 5 4 4 5 6 5 5 4 4 4 2 -0 -2 -0 2 2 1 2 4 5 4 1 -1 -2 -0 1 3 4 5 5 5 5 6
13 11 7 5 9 17 16 13 13 11 8 8 7 4 6 9 8 5 6 8 8 8 9 9 6 1 -7 -10 -11 -13 -12 -7 -4 0 8 8 5 9 13 13 11 8 3 -2 -5 -3 4 5 2 1 1 1 3 5 7 10 11 12 13 12 8 6 4 3 4 5 6 4 3 4 4 0 -3 -2 1 3 3 4 6 7 7 6 5 5 5
10 10 9 10 13 13 9 9 15 18 13 7 5 5 5 5 6 6 5 6 7 6 7 9 10 9 3 -3 -3 -0 2 5 7 8 9 4 -4 -6 -4 0 7 10 9 6 2 -1 -1 0 0 1 0 -0 0 -0 -1 1 4 8 11 12 10 8 8 8 9 9 9 8 7 5 1 -3 -1 3 5 4 3 4 5 6 5 6 6 5 6
5 5 7 9 10 12 12 10 10 14 17 13 8 6 5 3 3 5 6 6 7 7 7 6 7 10 12 10 9 9 8 9 10 10 11 11 9 5 1 -1 0 2 2 4 5 6 5 3 1 1 0 1 2 1 -1 -2 -3 -4 -3 -2 1 2 1 1 1 -1 -4 -4 -3 -2 -2 -2 -1 0 -0 1 5 7 7 7 6 7 7 7 8
9 9 13 13 10 12 14 12 8 8 11 11 8 6 5 5 5 6 7 7 8 8 8 9 10 11 12 11 12 13 14 13 11 8 7 10 13 13 13 12 10 8 5 2 -1 -1 0 2 3 4 4 4 5 5 4 3 1 0 -1 -0 2 2 1 1 1 -1 -4 -3 -1 -1 1 2 2 2 5 8 11 11 10 10 9 8 8 8 8
14 12 13 13 12 12 11 9 8 7 7 7 6 6 6 7 8 9 9 9 10 11 9 8 8 9 10 9 9 9 9 8 5 4 5 7 7 6 7 8 9 9 10 8 7 6 5 6 7 5 -0 -5 -8 -6 -2 -0 2 5 7 7 7 6 5 5 4 1 0 2 4 5 6 7 9 10 11 11 11 11 11 10 10 9 9 9 9
16 13 11 9 9 11 12 13 13 13 12 10 9 8 8 8 8 9 10 10 10 11 10 9 7 5 5 5 5 4 3 2 1 2 2 3 3 4 4 4 4 4 5 5 5 5 5 5 4 1 -1 -3 -3 -1 3 6 8 10 11 11 10 10 12 12 11 9 8 8 9 10 10 9 8 7 6 5 6 6 6 6 7 8 8 8 8
11 11 10 9 9 10 13 16 17 16 15 14 13 12 12 11 10 10 11 13 14 12 10 9 7 5 4 4 5 4 3 3 4 6 7 7 7 7 6 6 6 6 5 5 5 5 5 6 7 7 9 11 10 11 11 12 12 12 11 11 12 12 13 14 13 13 11 9 8 6 4 3 2 2 1 1 2 1 2 3 5 5 6 7 7
9 10 10 9 8 7 8 11 13 15 14 14 14 15 15 14 13 12 12 13 15 15 14 12 10 9 8 8 8 7 8 9 9 10 10 10 11 11 11 12 13 13 13 13 13 13 13 13 13 13 13 12 12 11 10 8 7 6 5 5 5 5 5 5 4 4 4 4 4 3 3 4 3 3 3 3 3 3 2 2 3 4 5 6 6
7 9 12 13 12 11 9 8 8 9 10 10 11 12 13 14 14 14 13 12 11 12 12 11 10 9 8 7 7 7 7 7 8 9 10 10 9 9 9 9 9 9 9 9 8 8 8 7 6 6 5 5 5 4 4 3 3 3 3 3 3 3 4 3 4 5 5 6 7 8 9 10 10 10 11 12 13 14 14 14 15 15 16 16 16
4 4 4 6 9 10 11 11 10 9 8 6 5 5 6 7 8 9 10 9 8 8 8 7 8 8 7 7 7 7 7 7 6 6 6 6 6 6 5 4 4 4 4 5 5 5 5 5 5 5 5 5 5 6 6 6 6 6 6 6 5 5 6 6 7 9 10 12 14 15 17 19 21 23 25 26 27 28 28 29 29 27 27 28 27
Height
5792 5793 5794 5795 5795 5796 5796 5797 5797 5798 5798 5798 5798 5797 5797 5797 5796 5795 5795 5793 5793 5795 5796 5796 5796 5797 5798 5799 5799 5799 5799 5801 5802 5802 5802 5803 5804 5804 5804 5803 5803 5805 5805 5806 5806 5807 5807 5807 5807 5808 5808 5809 5809 5809 5810 5810 5811 5811 5812 5813 5815 5816 5816 5816 5815 5816 5817 5817 5817 5816 5816 5815 5816 5816 5816 5817 5817 5818 5818 5818 5819 5819 5819 5820 5820
5789 5791 5792 5793 5793 5794 5794 5795 5795 5796 5796 5797 5796 5796 5795 5795 5794 5793 5792 5791 5791 5792 5795 5796 5796 5797 5797 5797 5797 5796 5797 5798 5799 5800 5801 5801 5801 5802 5802 5802 5803 5803 5804 5805 5805 5806 5806 5806 5806 5807 5807 5807 5808 5808 5809 5809 5810 5811 5811 5813 5814 5814 5815 5815 5816 5816 5816 5816 5816 5815 5815 5815 5815 5815 5815 5816 5817 5817 5817 5818 5818 5818 5819 5819 5819
5786 5788 5789 5790 5791 5791 5792 5793 5793 5794 5794 5795 5795 5794 5794 5793 5792 5791 5790 5789 5788 5790 5794 5796 5796 5796 5796 5795 5795 5794 5795 5796 5797 5798 5798 5799 5799 5799 5800 5801 5801 5802 5803 5804 5804 5804 5804 5805 5805 5806 5806 5806 5807 5807 5808 5808 5809 5810 5811 5812 5813 5813 5814 5814 5814 5815 5815 5815 5815 5814 5815 5815 5814 5814 5815 5815 5816 5816 5817 5817 5817 5817 5818 5818 5818
5783 5785 5785 5787 5788 5789 5790 5790 5791 5792 5792 5793 5793 5792 5792 5791 5790 5789 5788 5787 5787 5788 5792 5793 5794 5794 5794 5793 5793 5793 5794 5794 5795 5796 5796 5797 5797 5798 5798 5799 5800 5800 5801 5802 5803 5803 5803 5803 5804 5804 5805 5805 5806 5806 5807 5808 5808 5809 5810 5811 5812 5812 5813 5813 5813 5814 5815 5814 5814 5814 5815 5814 5813 5814 5814 5815 5815 5815 5816 5816 5816 5817 5817 5817 5818
5779 5781 5782 5784 5785 5787 5787 5788 5789 5790 5790 5791 5791 5791 5790 5790 5789 5788 5787 5786 5786 5787 5788 5790 5791 5790 5791 5791 5792 5792 5793 5793 5794 5794 5794 5795 5795 5796 5797 5797 5798 5799 5800 5800 5801 5801 5802 5802 5803 5803 5804 5805 5805 5806 5806 5807 5808 5809 5809 5810 5811 5811 5812 5812 5812 5813 5813 5813 5813 5813 5813 5814 5813 5813 5814 5814 5814 5815 5815 5816 5816 5816 5816 5816 5817
5775 5777 5779 5781 5782 5784 5785 5785 5786 5787 5788 5788 5789 5789 5789 5788 5787 5787 5786 5785 5785 5786 5786 5787 5788 5788 5788 5789 5790 5791 5791 5791 5792 5792 5793 5794 5794 5795 5795 5796 5797 5798 5798 5799 5800 5800 5801 5801 5802 5802 5803 5804 5804 5805 5806 5806 5807 5808 5808 5809 5810 5810 5810 5811 5812 5812 5812 5812 5812 5812 5812 5812 5813 5813 5813 5813 5814 5814 5815 5815 5815 5815 5815 5816 5816
5772 5774 5776 5777 5779 5781 5782 5782 5783 5784 5785 5786 5787 5787 5787 5786 5786 5786 5785 5784 5784 5785 5785 5786 5786 5786 5787 5788 5789 5789 5789 5790 5790 5791 5792 5792 5793 5794 5794 5795 5796 5797 5797 5798 5798 5799 5800 5800 5801 5801 5802 5803 5803 5804 5805 5806 5806 5807 5807 5808 5809 5810 5809 5809 5810 5811 5810 5811 5811 5811 5811 5811 5812 5813 5812 5812 5812 5813 5814 5814 5814 5814 5814 5815 5815
5769 5770 5772 5774 5776 5778 5779 5780 5781 5781 5782 5784 5784 5785 5785 5785 5784 5784 5784 5783 5783 5784 5784 5784 5784 5785 5786 5787 5787 5787 5787 5788 5789 5789 5790 5791 5792 5793 5793 5794 5795 5796 5796 5797 5797 5798 5798 5799 5800 5800 5801 5802 5802 5803 5803 5804 5805 5805 5806 5806 5807 5809 5808 5807 5808 5809 5809 5810 5810 5810 5811 5811 5811 5812 5812 5811 5812 5812 5813 5813 5813 5813 5813 5813 5814
5765 5767 5769 5770 5773 5775 5776 5777 5778 5778 5780 5782 5782 5783 5783 5783 5782 5782 5782 5782 5782 5782 5782 5783 5783 5784 5785 5785 5785 5785 5786 5786 5787 5788 5789 5790 5791 5792 5792 5793 5794 5794 5795 5795 5796 5796 5797 5798 5798 5799 5800 5800 5801 5801 5802 5802 5803 5803 5804 5805 5805 5806 5806 5806 5807 5808 5809 5809 5809 5809 5810 5810 5810 5810 5811 5811 5811 5811 5812 5812 5812 5812 5811 5812 5812
5762 5764 5765 5767 5770 5772 5773 5773 5774 5775 5777 5779 5780 5780 5781 5780 5780 5780 5779 5780 5780 5780 5780 5781 5782 5782 5783 5783 5783 5784 5784 5785 5786 5787 5788 5789 5790 5790 5791 5792 5792 5793 5794 5794 5795 5795 5796 5796 5797 5797 5798 5799 5799 5800 5800 5800 5801 5801 5802 5803 5804 5804 5804 5805 5807 5808 5809 5808 5808 5808 5808 5808 5808 5808 5809 5810 5810 5810 5810 5810 5810 5810 5810 5810 5810
5759 5761 5762 5764 5766 5768 5769 5769 5770 5772 5774 5776 5777 5778 5778 5778 5778 5777 5777 5778 5778 5778 5779 5779 5780 5780 5781 5781 5782 5782 5783 5784 5785 5786 5787 5787 5788 5789 5790 5790 5791 5792 5792 5793 5793 5794 5794 5795 5795 5796 5796 5797 5798 5798 5799 5799 5800 5800 5800 5801 5802 5803 5803 5804 5805 5806 5807 5807 5806 5806 5806 5806 5806 5806 5807 5808 5809 5809 5809 5808 5808 5808 5808 5808 5808
5755 5757 5759 5761 5762 5764 5764 5763 5765 5769 5772 5774 5775 5775 5775 5775 5775 5775 5775 5776 5776 5776 5777 5777 5778 5779 5780 5780 5780 5781 5782 5783 5783 5784 5785 5786 5786 5788 5789 5789 5790 5791 5791 5792 5792 5792 5793 5793 5794 5794 5795 5796 5796 5797 5798 5798 5798 5798 5799 5800 5801 5802 5802 5803 5803 5804 5804 5805 5805 5804 5804 5805 5805 5805 5806 5807 5807 5808 5807 5807 5807 5807 5807 5807 5807
5752 5754 5756 5757 5758 5759 5760 5762 5767 5770 5771 5772 5773 5773 5773 5773 5773 5773 5774 5774 5774 5775 5775 5776 5776 5777 5778 5779 5779 5780 5780 5781 5782 5782 5783 5784 5785 5786 5787 5788 5789 5789 5790 5790 5791 5791 5791 5792 5792 5793 5793 5794 5795 5796 5796 5797 5797 5797 5798 5799 5800 5801 5801 5801 5802 5802 5802 5802 5803 5803 5803 5803 5804 5804 5805 5806 5806 5806 5806 5806 5806 5806 5805 5806 5806
5750 5751 5752 5754 5756 5758 5761 5765 5769 5771 5771 5771 5771 5770 5771 5771 5771 5772 5772 5772 5773 5773 5774 5774 5775 5776 5777 5777 5777 5778 5778 5779 5780 5781 5782 5783 5784 5785 5785 5786 5787 5787 5788 5788 5789 5789 5790 5790 5791 5791 5792 5793 5793 5794 5795 5795 5796 5796 5797 5798 5799 5799 5799 5800 5800 5800 5800 5800 5801 5802 5802 5802 5802 5803 5804 5805 5805 5805 5805 5804 5804 5804 5804 5804 5804
5747 5749 5750 5753 5756 5758 5761 5763 5766 5768 5769 5769 5769 5769 5769 5769 5770 5770 5770 5771 5771 5772 5772 5773 5773 5774 5775 5775 5776 5776 5777 5777 5778 5779 5780 5781 5781 5782 5782 5783 5784 5785 5786 5787 5787 5788 5788 5789 5789 5790 5790 5791 5792 5793 5793 5794 5795 5795 5796 5797 5797 5798 5798 5798 5798 5799 5799 5799 5799 5799 5800 5801 5801 5801 5802 5803 5804 5804 5803 5803 5803 5803 5803 5803 5803
5745 5747 5749 5752 5754 5757 5759 5761 5762 5763 5764 5766 5767 5768 5768 5768 5768 5768 5769 5769 5769 5770 5771 5771 5772 5773 5773 5773 5774 5774 5775 5776 5777 5777 5778 5778 5779 5779 5780 5781 5782 5783 5784 5784 5785 5786 5787 5788 5788 5789 5789 5790 5791 5791 5792 5793 5794 5794 5795 5796 5796 5797 5797 5797 5797 5797 5798 5799 5798 5797 5798 5799 5800 5800 5801 5802 5802 5802 5802 5801 5801 5802 5802 5802 5802
5744 5746 5748 5751 5753 5755 5757 5758 5759 5758 5761 5763 5765 5765 5766 5766 5766 5766 5767 5767 5768 5768 5769 5769 5770 5771 5772 5772 5772 5773 5773 5774 5775 5775 5776 5776 5777 5777 5778 5779 5780 5781 5782 5783 5783 5784 5785 5786 5787 5788 5788 5789 5789 5790 5791 5791 5792 5793 5794 5795 5796 5796 5796 5796 5796 5797 5797 5798 5799 5798 5797 5797 5798 5799 5800 5801 5800 5800 5800 5800 5800 5800 5800 5800 5800
5743 5745 5747 5749 5751 5752 5754 5756 5756 5756 5758 5760 5761 5762 5762 5763 5763 5764 5765 5765 5766 5766 5767 5768 5769 5770 5770 5770 5771 5772 5772 5773 5773 5774 5774 5775 5775 5776 5777 5777 5778 5779 5780 5781 5782 5783 5784 5785 5785 5786 5787 5787 5788 5788 5789 5790 5791 5792 5793 5793 5794 5795 5795 5796 5796 5796 5796 5797 5798 5799 5799 5798 5798 5799 5800 5800 5799 5798 5798 5798 5798 5799 5799 5799 5799
5741 5743 5746 5747 5749 5750 5752 5753 5754 5754 5754 5755 5756 5757 5758 5759 5761 5762 5763 5764 5764 5764 5765 5766 5767 5768 5768 5769 5770 5771 5771 5772 5772 5773 5773 5774 5774 5774 5775 5776 5776 5778 5779 5780 5781 5782 5782 5783 5784 5785 5785 5786 5787 5787 5788 5788 5789 5790 5791 5792 5792 5793 5794 5794 5794 5795 5795 5796 5797 5797 5797 5798 5798 5798 5799 5799 5798 5797 5797 5797 5797 5797 5797 5797 5797
5739 5741 5743 5745 5747 5749 5750 5751 5751 5751 5751 5752 5752 5753 5755 5756 5758 5760 5761 5762 5763 5763 5763 5764 5765 5766 5767 5767 5768 5769 5770 5771 5772 5772 5772 5772 5773 5773 5773 5774 5775 5776 5777 5778 5779 5780 5781 5781 5782 5783 5784 5785 5785 5786 5786 5787 5788 5788 5789 5790 5791 5791 5792 5792 5793 5793 5794 5794 5795 5795 5795 5796 5796 5797 5797 5797 5797 5796 5796 5796 5795 5795 5795 5795 5795
5736 5738 5740 5743 5745 5745 5745 5746 5746 5747 5749 5750 5749 5750 5751 5753 5754 5757 5759 5760 5760 5760 5761 5762 5763 5764 5764 5765 5766 5767 5768 5769 5770 5770 5770 5771 5771 5772 5772 5773 5773 5774 5775 5776 5778 5779 5779 5780 5781 5781 5782 5783 5784 5785 5785 5786 5786 5787 5787 5788 5789 5789 5790 5791 5791 5791 5792 5792 5793 5793 5794 5794 5795 5795 5795 5795 5795 5794 5794 5794 5794 5793 5793 5793 5793
5733 5735 5738 5740 5741 5740 5740 5739 5740 5742 5745 5747 5748 5748 5749 5750 5751 5753 5755 5756 5757 5757 5758 5759 5760 5761 5762 5762 5763 5764 5765 5766 5767 5767 5768 5769 5769 5770 5771 5771 5772 5773 5774 5775 5776 5777 5778 5778 5779 5780 5780 5781 5782 5783 5783 5784 5785 5785 5786 5787 5787 5788 5789 5789 5790 5790 5790 5791 5791 5791 5792 5792 5793 5793 5793 5793 5793 5792 5792 5792 5792 5792 5792 5792 5791
5730 5733 5736 5737 5737 5736 5736 5736 5738 5740 5741 5743 5746 5747 5746 5747 5748 5749 5751 5753 5754 5755 5755 5756 5757 5758 5759 5759 5760 5761 5761 5762 5763 5764 5765 5767 5768 5769 5769 5770 5771 5772 5773 5774 5774 5775 5776 5776 5777 5778 5778 5779 5780 5780 5781 5782 5783 5784 5784 5785 5786 5787 5787 5787 5788 5788 5789 5789 5789 5789 5790 5790 5791 5791 5791 5790 5790 5790 5790 5790 5790 5790 5790 5790 5790
5728 5731 5733 5734 5733 5733 5733 5735 5735 5737 5738 5738 5740 5742 5742 5743 5743 5745 5747 5749 5750 5752 5752 5753 5754 5755 5756 5757 5758 5758 5759 5760 5761 5762 5763 5765 5766 5767 5768 5769 5770 5770 5771 5772 5773 5773 5774 5774 5775 5775 5776 5777 5777 5778 5779 5780 5780 5781 5782 5783 5784 5785 5785 5786 5786 5786 5787 5787 5787 5787 5787 5788 5788 5788 5788 5788 5788 5788 5788 5789 5789 5788 5788 5788 5788
5727 5728 5730 5730 5729 5729 5731 5732 5731 5732 5734 5734 5735 5737 5739 5739 5739 5740 5742 5745 5747 5748 5749 5750 5751 5752 5753 5755 5755 5756 5757 5757 5758 5760 5761 5762 5763 5764 5765 5767 5768 5768 5770 5770 5771 5772 5772 5772 5772 5773 5773 5774 5775 5776 5776 5777 5778 5779 5780 5781 5781 5782 5783 5783 5784 5784 5784 5785 5785 5785 5785 5786 5786 5786 5785 5786 5786 5786 5786 5786 5786 5787 5787 5787 5786
5724 5726 5726 5726 5725 5725 5727 5729 5728 5728 5729 5730 5731 5732 5734 5735 5736 5736 5738 5741 5743 5745 5746 5747 5748 5749 5750 5751 5753 5754 5755 5755 5756 5757 5759 5760 5761 5762 5763 5764 5765 5766 5767 5768 5769 5770 5770 5770 5770 5771 5771 5772 5772 5773 5774 5775 5776 5776 5777 5778 5779 5780 5781 5781 5782 5782 5782 5783 5783 5783 5783 5784 5784 5784 5783 5783 5784 5784 5784 5784 5784 5784 5785 5785 5784
5722 5723 5722 5722 5721 5721 5723 5724 5725 5725 5725 5726 5726 5726 5727 5730 5731 5732 5734 5737 5739 5740 5742 5743 5745 5746 5747 5748 5750 5751 5752 5753 5754 5756 5757 5758 5759 5760 5761 5762 5763 5764 5765 5766 5767 5767 5768 5768 5768 5769 5769 5770 5771 5771 5772 5773 5773 5774 5775 5776 5777 5778 5778 5779 5779 5780 5780 5780 5780 5781 5781 5781 5781 5782 5781 5781 5782 5782 5782 5782 5782 5782 5783 5782 5782
5718 5718 5718 5718 5717 5717 5718 5720 5720 5721 5720 5720 5720 5720 5721 5723 5725 5728 5730 5733 5734 5736 5738 5740 5742 5743 5744 5745 5747 5748 5750 5751 5752 5754 5755 5756 5756 5757 5758 5759 5760 5761 5762 5764 5764 5765 5766 5766 5766 5767 5767 5768 5769 5769 5770 5771 5771 5772 5773 5774 5774 5775 5776 5776 5777 5777 5777 5778 5778 5778 5779 5779 5779 5779 5779 5779 5780 5779 5779 5780 5780 5780 5780 5780 5780
5714 5714 5714 5714 5714 5714 5714 5715 5715 5715 5714 5715 5716 5715 5716 5718 5721 5725 5728 5729 5731 5733 5734 5737 5739 5740 5741 5743 5744 5745 5747 5748 5750 5751 5752 5753 5754 5755 5756 5756 5757 5758 5759 5761 5762 5763 5763 5764 5764 5764 5765 5765 5766 5767 5767 5768 5769 5770 5770 5771 5772 5772 5773 5773 5774 5774 5775 5775 5776 5776 5776 5776 5777 5777 5777 5777 5777 5777 5777 5777 5777 5777 5777 5777 5777
5710 5711 5711 5711 5710 5710 5710 5710 5710 5709 5709 5710 5711 5711 5712 5715 5718 5722 5725 5726 5727 5729 5731 5733 5735 5737 5738 5740 5741 5742 5744 5745 5747 5748 5749 5750 5751 5752 5753 5753 5754 5755 5756 5757 5759 5760 5761 5762 5762 5762 5763 5763 5763 5764 5765 5765 5766 5767 5767 5768 5769 5769 5770 5770 5770 5771 5772 5772 5773 5773 5774 5774 5774 5774 5774 5774 5774 5774 5774 5774 5774 5774 5774 5774 5774
5707 5708 5708 5707 5707 5707 5706 5705 5705 5704 5703 5704 5706 5708 5709 5711 5714 5718 5722 5723 5723 5724 5727 5729 5732 5733 5735 5736 5738 5739 5741 5742 5744 5745 5746 5747 5748 5748 5748 5750 5751 5751 5753 5754 5755 5757 5758 5759 5759 5760 5760 5760 5761 5761 5762 5762 5763 5764 5765 5765 5766 5766 5767 5767 5767 5768 5768 5769 5770 5770 5770 5770 5771 5771 5771 5771 5771 5771 5771 5771 5771 5771 5771 5771 5771
5704 5704 5704 5704 5704 5702 5702 5701 5701 5700 5699 5700 5702 5703 5705 5708 5711 5715 5718 5719 5718 5720 5724 5726 5728 5730 5731 5732 5734 5736 5737 5739 5741 5742 5742 5743 5744 5744 5744 5746 5748 5749 5750 5751 5752 5753 5754 5755 5756 5756 5757 5757 5758 5758 5759 5760 5760 5761 5761 5762 5763 5763 5764 5764 5764 5765 5765 5765 5766 5766 5767 5767 5767 5767 5768 5768 5768 5768 5768 5768 5768 5768 5768 5768 5768
5701 5701 5701 5701 5700 5699 5698 5698 5697 5695 5694 5695 5698 5700 5702 5706 5709 5712 5714 5715 5716 5718 5720 5722 5724 5726 5728 5730 5731 5733 5735 5736 5738 5738 5739 5740 5741 5742 5742 5744 5745 5746 5747 5748 5749 5750 5751 5752 5753 5753 5754 5754 5755 5755 5756 5756 5757 5757 5758 5759 5759 5760 5760 5761 5761 5761 5762 5762 5762 5763 5763 5764 5764 5764 5764 5764 5764 5764 5765 5765 5765 5765 5764 5764 5764
5698 5698 5698 5698 5698 5697 5696 5695 5694 5692 5691 5693 5696 5698 5701 5704 5706 5709 5711 5713 5714 5716 5717 5719 5721 5723 5725 5727 5729 5730 5732 5734 5735 5735 5736 5737 5738 5739 5740 5741 5742 5743 5744 5745 5746 5747 5747 5748 5749 5750 5750 5751 5752 5752 5752 5753 5753 5754 5754 5755 5755 5756 5757 5757 5757 5758 5758 5758 5759 5759 5760 5760 5760 5760 5760 5761 5760 5761 5761 5761 5761 5761 5761 5760 5760
5694 5695 5696 5696 5695 5694 5693 5693 5692 5691 5690 5691 5693 5695 5698 5702 5704 5706 5708 5710 5712 5713 5714 5716 5717 5720 5723 5725 5726 5728 5729 5731 5732 5732 5733 5734 5735 5736 5737 5738 5739 5740 5741 5742 5743 5744 5744 5745 5746 5746 5747 5748 5748 5749 5749 5749 5750 5750 5751 5751 5752 5752 5753 5753 5753 5754 5754 5754 5755 5755 5756 5756 5756 5756 5756 5756 5756 5756 5756 5756 5756 5756 5756 5756 5755
5691 5692 5693 5693 5693 5692 5691 5691 5691 5691 5691 5691 5691 5693 5696 5700 5702 5703 5705 5707 5709 5710 5711 5713 5715 5718 5720 5722 5723 5725 5726 5727 5729 5729 5730 5731 5732 5733 5734 5735 5736 5737 5738 5739 5740 5741 5741 5742 5742 5743 5744 5744 5745 5745 5746 5746 5746 5747 5747 5747 5748 5748 5749 5749 5749 5749 5750 5750 5750 5751 5751 5751 5751 5752 5752 5752 5752 5752 5751 5751 5751 5751 5751 5750 5750
5688 5689 5690 5691 5691 5690 5690 5690 5690 5689 5690 5691 5691 5693 5695 5697 5698 5699 5701 5703 5705 5707 5709 5711 5714 5716 5717 5719 5720 5722 5723 5724 5725 5726 5727 5728 5729 5730 5731 5733 5734 5734 5735 5736 5737 5737 5738 5739 5739 5740 5740 5740 5741 5741 5741 5742 5742 5743 5743 5744 5744 5744 5744 5745 5745 5745 5745 5746 5746 5746 5746 5746 5746 5747 5747 5746 5746 5746 5746 5746 5746 5746 5745 5745 5744
5684 5685 5686 5688 5689 5689 5689 5690 5689 5688 5689 5690 5691 5692 5694 5695 5696 5697 5698 5700 5702 5705 5707 5709 5711 5713 5714 5716 5718 5719 5720 5721 5722 5723 5724 5725 5726 5727 5728 5729 5730 5731 5732 5732 5733 5734 5734 5735 5736 5736 5736 5737 5737 5737 5737 5738 5738 5739 5739 5739 5740 5740 5740 5740 5740 5740 5740 5741 5741 5740 5740 5740 5740 5741 5741 5740 5740 5740 5740 5740 5740 5740 5740 5739 5738
5680 5682 5683 5684 5686 5686 5687 5688 5688 5688 5688 5688 5690 5691 5692 5693 5694 5695 5697 5699 5701 5703 5705 5706 5708 5709 5710 5712 5714 5715 5717 5718 5719 5720 5721 5722 5723 5724 5725 5726 5726 5727 5728 5729 5729 5730 5730 5731 5732 5732 5732 5733 5733 5733 5733 5734 5734 5734 5735 5735 5735 5735 5735 5735 5735 5736 5735 5735 5735 5735 5735 5734 5734 5734 5734 5734 5734 5734 5733 5733 5734 5734 5733 5732 5731
5677 5678 5679 5681 5682 5683 5684 5685 5686 5686 5686 5687 5688 5689 5690 5691 5692 5694 5695 5697 5699 5701 5703 5704 5706 5706 5708 5709 5710 5712 5713 5715 5716 5717 5718 5719 5720 5721 5721 5722 5723 5723 5724 5725 5725 5726 5726 5728 5728 5728 5728 5728 5729 5728 5729 5729 5730 5730 5731 5731 5731 5731 5731 5731 5731 5731 5730 5730 5730 5729 5729 5729 5728 5727 5727 5727 5727 5727 5726 5726 5726 5726 5726 5724 5723
5673 5674 5675 5676 5678 5679 5681 5681 5682 5683 5684 5684 5685 5687 5688 5689 5690 5691 5693 5694 5696 5698 5700 5702 5704 5705 5706 5707 5708 5709 5711 5712 5713 5715 5715 5715 5715 5716 5717 5718 5719 5719 5720 5721 5722 5722 5723 5724 5724 5723 5723 5724 5724 5724 5724 5725 5726 5726 5726 5726 5726 5726 5726 5725 5725 5725 5724 5724 5724 5723 5724 5724 5722 5721 5720 5720 5720 5719 5719 5719 5718 5717 5717 5716 5715
5669 5670 5671 5672 5674 5675 5677 5678 5679 5680 5681 5682 5682 5684 5685 5686 5687 5688 5690 5692 5693 5695 5697 5699 5701 5703 5704 5704 5705 5706 5707 5709 5710 5712 5712 5712 5712 5712 5713 5714 5715 5716 5716 5717 5718 5718 5718 5719 5719 5719 5719 5719 5719 5720 5720 5721 5721 5721 5721 5721 5721 5721 5720 5720 5719 5719 5718 5718 5717 5716 5717 5718 5716 5714 5714 5713 5713 5712 5712 5711 5710 5709 5708 5707 5706
5666 5667 5668 5669 5670 5671 5673 5675 5676 5676 5677 5678 5679 5680 5682 5683 5684 5685 5687 5689 5690 5692 5693 5695 5697 5699 5700 5701 5702 5702 5704 5705 5706 5708 5708 5708 5709 5709 5710 5710 5711 5712 5712 5713 5713 5714 5714 5714 5714 5714 5714 5714 5714 5714 5715 5715 5715 5715 5715 5715 5715 5715 5715 5714 5714 5713 5712 5711 5711 5710 5710 5710 5709 5707 5707 5706 5705 5704 5703 5703 5701 5700 5699 5698 5697
5663 5664 5665 5665 5666 5667 5669 5670 5672 5673 5674 5675 5676 5677 5678 5680 5680 5682 5683 5685 5686 5688 5689 5690 5692 5694 5696 5697 5698 5699 5699 5700 5701 5703 5704 5704 5705 5705 5705 5706 5707 5707 5708 5708 5709 5709 5709 5709 5709 5709 5709 5709 5709 5709 5709 5709 5709 5709 5709 5709 5709 5709 5709 5708 5708 5707 5706 5705 5705 5704 5703 5703 5701 5700 5699 5698 5697 5696 5694 5693 5692 5690 5689 5688 5687
5659 5660 5661 5662 5662 5663 5665 5666 5668 5669 5670 5672 5672 5673 5674 5675 5677 5678 5679 5680 5682 5683 5684 5686 5687 5689 5690 5692 5693 5694 5695 5695 5697 5698 5698 5699 5700 5701 5701 5702 5702 5703 5703 5704 5704 5704 5704 5704 5704 5704 5703 5703 5703 5703 5703 5703 5703 5704 5704 5704 5703 5703 5702 5702 5701 5700 5699 5699 5698 5697 5696 5695 5694 5692 5691 5690 5688 5687 5685 5684 5682 5680 5679 5678 5677
5656 5657 5658 5658 5659 5660 5661 5662 5663 5665 5666 5667 5668 5669 5670 5671 5673 5674 5675 5676 5677 5678 5680 5681 5682 5683 5684 5686 5687 5688 5689 5691 5692 5693 5693 5694 5695 5696 5696 5697 5697 5697 5698 5698 5698 5698 5698 5698 5698 5698 5698 5697 5697 5697 5697 5697 5697 5697 5697 5697 5696 5696 5695 5694 5693 5693 5692 5691 5690 5689 5687 5686 5685 5683 5682 5680 5678 5677 5675 5674 5672 5670 5669 5668 5666
5653 5653 5654 5655 5656 5656 5657 5659 5660 5660 5661 5662 5663 5665 5666 5667 5669 5670 5671 5672 5673 5674 5675 5676 5677 5678 5679 5681 5682 5683 5684 5685 5687 5687 5688 5688 5689 5690 5690 5691 5691 5691 5692 5692 5692 5692 5692 5691 5692 5691 5691 5690 5690 5689 5689 5690 5690 5689 5689 5688 5688 5687 5687 5686 5685 5685 5684 5683 5681 5679 5678 5677 5676 5674 5672 5671 5669 5667 5665 5663 5661 5659 5658 5657 5655
5649 5650 5651 5651 5652 5653 5654 5655 5656 5657 5657 5658 5659 5660 5661 5663 5664 5666 5667 5668 5669 5670 5671 5672 5673 5674 5675 5676 5677 5678 5679 5680 5681 5681 5682 5683 5683 5684 5684 5685 5685 5685 5685 5685 5685 5685 5685 5685 5684 5684 5684 5683 5683 5682 5682 5682 5682 5681 5681 5680 5679 5679 5678 5678 5677 5676 5676 5674 5672 5671 5669 5668 5666 5665 5663 5661 5659 5657 5655 5652 5650 5648 5646 5645 5643
5645 5646 5646 5647 5648 5649 5650 5651 5651 5652 5653 5654 5654 5655 5656 5657 5659 5660 5662 5663 5664 5665 5666 5667 5668 5669 5670 5671 5672 5672 5673 5674 5675 5676 5677 5677 5678 5678 5678 5679 5679 5679 5679 5679 5679 5678 5678 5678 5677 5677 5676 5676 5675 5675 5675 5675 5674 5673 5673 5672 5671 5670 5670 5668 5667 5666 5665 5664 5662 5660 5659 5657 5656 5654 5652 5650 5648 5646 5644 5642 5639 5636 5634 5633 5631
5641 5641 5642 5643 5643 5644 5645 5646 5646 5647 5648 5649 5650 5650 5651 5652 5654 5655 5656 5658 5659 5660 5661 5662 5664 5664 5665 5666 5666 5667 5668 5669 5670 5670 5671 5672 5673 5673 5673 5673 5673 5672 5672 5672 5672 5672 5671 5671 5671 5670 5669 5669 5668 5668 5667 5667 5666 5665 5664 5663 5662 5661 5660 5658 5657 5655 5654 5652 5650 5648 5647 5645 5644 5642 5640 5638 5636 5635 5633 5631 5628 5626 5623 5621 5619
5636 5637 5637 5638 5639 5640 5641 5641 5642 5643 5644 5644 5645 5646 5647 5648 5649 5650 5651 5653 5654 5655 5656 5657 5658 5659 5660 5660 5661 5661 5662 5663 5664 5665 5665 5666 5667 5667 5667 5667 5667 5666 5666 5665 5665 5665 5664 5664 5664 5663 5662 5661 5660 5660 5659 5658 5657 5656 5655 5655 5654 5652 5650 5648 5647 5645 5642 5640 5639 5637 5635 5633 5632 5630 5628 5626 5624 5623 5621 5619 5617 5614 5612 5610 5608